Weather History for KHAI - May, 2013

Change the Weather History Date:

Wednesday, May 22, 2013

  Actual Average Record
Temperature  
Mean Temperature 68 °F -  
Max Temperature 75 °F 74 °F 90 °F (1964)
Min Temperature 60 °F 48 °F 32 °F (2006)
Cooling Degree Days 2    
Growing Degree Days 18 (Base 50)    
Moisture  
Dew Point 63 °F    
Average Humidity 90    
Maximum Humidity 98    
Minimum Humidity 66    
Precipitation  
Precipitation 0.00 in - - ()
Sea Level Pressure  
Sea Level Pressure 29.71 in    
Wind  
Wind Speed 7 mph (SSW)    
Max Wind Speed 24 mph    
Max Gust Speed 31 mph    
Visibility 9 miles    
Events Rain    
Averages and records for this station are not official NWS values.
T = Trace of Precipitation, MM = Missing Value Source: NWS Daily Summary

Daily Weather History Graph

Daily Weather History Graph

Search for Another Location

Airport or City:

Trip Planner

Search our weather history database for the weather conditions in past years. The results will help you decide how hot, cold, wet, or windy it might be!

Date:

Astronomy

May. 22, 2013 Rise Set
Actual Time 6:15 AM EDT 9:03 PM EDT
Civil Twilight 5:42 AM EDT 9:35 PM EDT
Nautical Twilight 5:01 AM EDT 10:17 PM EDT
Astronomical Twilight 4:14 AM EDT 11:04 PM EDT
Moon 6:22 PM EDT (5/22) 4:21 AM EDT (5/22)
Length of Visible Light 15h 52m
Length of Day
14h 47m
Waxing Gibbous, 91% of the Moon is Illuminated
May 22
Waxing Gibbous
May 25
Full
May 31
Last Quarter
Jun 8
New
Jun 16
First Quarter

Hourly Weather History & Observations

Time (EDT) Temp. Dew Point Humidity Pressure Visibility Wind Dir Wind Speed Gust Speed Precip Events Conditions
12:14 AM 68.7 °F 65.1 °F 88% 29.75 in 10.0 mi South 4.6 mph - N/A   Overcast
12:34 AM 68.2 °F 66.0 °F 93% 29.75 in 10.0 mi SW 5.8 mph - N/A Rain Light Rain
12:55 AM 67.8 °F 64.8 °F 90% 29.75 in 7.0 mi SSW 11.5 mph - N/A Rain Light Rain
1:14 AM 67.3 °F 64.4 °F 90% 29.75 in 10.0 mi SSW 5.8 mph - N/A   Scattered Clouds
1:34 AM 66.4 °F 63.7 °F 91% 29.74 in 10.0 mi South 3.5 mph - N/A   Clear
1:55 AM 66.6 °F 63.9 °F 91% 29.74 in 10.0 mi Calm Calm - N/A   Clear
2:14 AM 66.4 °F 64.4 °F 93% 29.74 in 10.0 mi South 3.5 mph - N/A   Mostly Cloudy
2:34 AM 67.1 °F 64.6 °F 92% 29.73 in 10.0 mi South 3.5 mph - N/A   Mostly Cloudy
2:55 AM 67.1 °F 64.6 °F 92% 29.73 in 10.0 mi SSW 5.8 mph - N/A   Scattered Clouds
3:14 AM 67.1 °F 64.6 °F 92% 29.73 in 10.0 mi SSW 4.6 mph - N/A   Mostly Cloudy
3:35 AM 67.1 °F 64.8 °F 92% 29.73 in 10.0 mi SSW 5.8 mph - N/A   Mostly Cloudy
3:55 AM 66.9 °F 64.8 °F 93% 29.72 in 10.0 mi SSW 3.5 mph - N/A   Mostly Cloudy
4:14 AM 66.6 °F 64.8 °F 94% 29.71 in 10.0 mi SSW 3.5 mph - N/A Rain Light Rain
4:35 AM 67.1 °F 65.1 °F 93% 29.72 in 10.0 mi South 5.8 mph - N/A   Mostly Cloudy
4:54 AM 67.1 °F 65.3 °F 94% 29.72 in 10.0 mi South 6.9 mph - N/A   Overcast
5:14 AM 67.1 °F 64.9 °F 93% 29.72 in 10.0 mi South 5.8 mph - N/A Rain Light Rain
5:35 AM 66.7 °F 64.9 °F 94% 29.72 in 10.0 mi South 5.8 mph - N/A Rain Light Rain
5:54 AM 66.2 °F 64.8 °F 95% 29.72 in 7.0 mi South 5.8 mph - N/A Rain Light Rain
6:14 AM 66.2 °F 64.9 °F 96% 29.72 in 10.0 mi SSE 4.6 mph - N/A   Overcast
6:35 AM 65.8 °F 64.6 °F 96% 29.72 in 7.0 mi South 5.8 mph - N/A   Mostly Cloudy
6:54 AM 65.8 °F 64.4 °F 95% 29.72 in 10.0 mi South 4.6 mph - N/A   Scattered Clouds
7:14 AM 66.2 °F 64.4 °F 94% 29.72 in 10.0 mi SSE 4.6 mph - N/A   Scattered Clouds
7:35 AM 66.2 °F 64.8 °F 95% 29.73 in 7.0 mi South 6.9 mph - N/A Rain Light Rain
7:54 AM 66.2 °F 64.8 °F 95% 29.72 in 7.0 mi South 8.1 mph - N/A   Overcast
8:15 AM 66.4 °F 64.8 °F 95% 29.72 in 7.0 mi South 8.1 mph - N/A   Overcast
8:35 AM 66.6 °F 64.9 °F 95% 29.71 in 7.0 mi South 10.4 mph - N/A   Overcast
8:54 AM 67.1 °F 65.1 °F 93% 29.71 in 10.0 mi South 10.4 mph - N/A   Overcast
9:15 AM 67.1 °F 64.8 °F 92% 29.70 in 10.0 mi South 9.2 mph - N/A   Overcast
9:34 AM 67.1 °F 64.8 °F 92% 29.70 in 10.0 mi South 8.1 mph - N/A   Overcast
9:54 AM 67.1 °F 64.6 °F 92% 29.70 in 10.0 mi South 11.5 mph - N/A   Overcast
10:15 AM 67.5 °F 64.9 °F 92% 29.70 in 10.0 mi South 9.2 mph - N/A   Overcast
10:34 AM 66.6 °F 64.6 °F 93% 29.70 in 7.0 mi South 10.4 mph - N/A Rain Rain
10:54 AM 66.4 °F 64.4 °F 93% 29.69 in 5.0 mi South 11.5 mph - N/A Rain Light Rain
11:15 AM 66.2 °F 64.6 °F 94% 29.69 in 5.0 mi South 9.2 mph - N/A   Light Drizzle
11:34 AM 65.8 °F 64.4 °F 95% 29.70 in 7.0 mi SSW 11.5 mph 16.1 mph N/A Rain Rain
11:54 AM 66.2 °F 64.6 °F 94% 29.70 in 5.0 mi SW 10.4 mph 16.1 mph N/A   Overcast
12:15 PM 66.6 °F 65.3 °F 96% 29.70 in 5.0 mi SSW 10.4 mph - N/A Rain Light Rain
12:34 PM 69.6 °F 67.5 °F 93% 29.70 in 10.0 mi SSW 11.5 mph - N/A   Overcast
12:55 PM 71.1 °F 67.1 °F 87% 29.70 in 10.0 mi SSW 13.8 mph 24.2 mph N/A   Overcast
1:14 PM 71.1 °F 64.9 °F 81% 29.69 in 10.0 mi SSW 16.1 mph 26.5 mph N/A   Overcast
1:35 PM 72.5 °F 64.6 °F 76% 29.68 in 10.0 mi SW 20.7 mph - N/A   Overcast
1:54 PM 72.5 °F 63.9 °F 74% 29.67 in 10.0 mi SW 19.6 mph 24.2 mph N/A   Mostly Cloudy
2:14 PM 73.4 °F 63.1 °F 70% 29.67 in 10.0 mi SW 16.1 mph 20.7 mph N/A   Mostly Cloudy
2:35 PM 73.4 °F 63.3 °F 71% 29.67 in 10.0 mi SW 9.2 mph 19.6 mph N/A   Mostly Cloudy
2:54 PM 73.0 °F 62.2 °F 69% 29.67 in 10.0 mi SSW 24.2 mph 31.1 mph N/A   Mostly Cloudy
3:15 PM 72.9 °F 63.9 °F 73% 29.67 in 10.0 mi SW 17.3 mph 29.9 mph N/A   Mostly Cloudy
3:35 PM 72.7 °F 62.4 °F 70% 29.67 in 10.0 mi SW 15.0 mph 25.3 mph N/A   Mostly Cloudy
3:54 PM 75.0 °F 63.0 °F 66% 29.67 in 10.0 mi SSW 18.4 mph 24.2 mph N/A   Scattered Clouds
4:15 PM 68.9 °F 64.0 °F 84% 29.67 in 3.0 mi SSW 18.4 mph 24.2 mph N/A Rain Light Rain
4:34 PM 71.6 °F 63.5 °F 76% 29.67 in 10.0 mi WSW 16.1 mph 24.2 mph N/A   Mostly Cloudy
4:54 PM 69.8 °F 62.8 °F 78% 29.67 in 10.0 mi West 12.7 mph 16.1 mph N/A   Mostly Cloudy
5:15 PM 66.2 °F 61.9 °F 86% 29.70 in 10.0 mi West 17.3 mph 25.3 mph N/A Rain Rain
5:34 PM 63.5 °F 61.7 °F 94% 29.68 in 4.0 mi NW 10.4 mph - N/A Rain Light Rain
5:54 PM 63.9 °F 62.6 °F 96% 29.68 in 7.0 mi WNW 6.9 mph 10.4 mph N/A   Overcast
6:15 PM 65.1 °F 63.0 °F 93% 29.68 in 10.0 mi West 10.4 mph - N/A   Overcast
6:34 PM 65.1 °F 62.6 °F 92% 29.69 in 10.0 mi West 9.2 mph 16.1 mph N/A   Overcast
6:54 PM 64.8 °F 61.7 °F 90% 29.70 in 10.0 mi West 6.9 mph - N/A   Overcast
7:15 PM 64.0 °F 61.3 °F 91% 29.70 in 10.0 mi West 5.8 mph - N/A   Overcast
7:34 PM 65.3 °F 62.2 °F 90% 29.70 in 10.0 mi WSW 3.5 mph - N/A   Overcast
7:55 PM 64.8 °F 61.0 °F 88% 29.71 in 10.0 mi WSW 3.5 mph - N/A   Scattered Clouds
8:14 PM 64.6 °F 61.0 °F 88% 29.71 in 10.0 mi West 4.6 mph - N/A   Clear
8:34 PM 64.4 °F 60.4 °F 87% 29.72 in 10.0 mi WSW 3.5 mph - N/A   Clear
8:55 PM 63.7 °F 59.9 °F 87% 29.72 in 10.0 mi Calm Calm - N/A   Clear
9:14 PM 63.0 °F 59.7 °F 89% 29.72 in 10.0 mi Calm Calm - N/A   Clear
9:35 PM 60.6 °F 58.3 °F 92% 29.72 in 10.0 mi Calm Calm - N/A   Scattered Clouds
9:55 PM 60.4 °F 59.2 °F 96% 29.72 in 10.0 mi Calm Calm - N/A   Mostly Cloudy
10:14 PM 60.3 °F 59.4 °F 97% 29.73 in 10.0 mi Calm Calm - N/A   Overcast
10:35 PM 61.2 °F 60.6 °F 98% 29.73 in 10.0 mi Calm Calm - N/A   Mostly Cloudy
10:54 PM 61.9 °F 61.0 °F 97% 29.73 in 10.0 mi Calm Calm - N/A   Overcast
11:14 PM 61.9 °F 60.8 °F 96% 29.73 in 10.0 mi Calm Calm - N/A   Overcast
11:35 PM 61.9 °F 60.6 °F 96% 29.73 in 10.0 mi Calm Calm - N/A   Overcast
11:54 PM 61.9 °F 60.8 °F 96% 29.74 in 10.0 mi Calm Calm - N/A   Scattered Clouds